FW9840 Weather Reports


Display with metric or nautical units.
time (UTC)temp
F
wind
direction
speed
MPH
gust
MPH
rain 1hr
in
rain 24hr
in
rain mn
in
humidity
%
barometer
mb
20260504050527 56 279 2.0 9.0 0.00 0.00 0.00 59 1018.3
20260504045527 56 213 3.0 12.0 0.00 0.00 0.00 59 1018.3
20260504045029 57 207 2.0 9.0 0.00 0.00 0.00 59 1018.2
20260504044552 57 227 3.0 15.0 0.00 0.00 0.00 58 1018.2
20260504044031 57 202 3.0 15.0 0.00 0.00 0.00 58 1018.3
20260504043527 57 214 4.0 11.0 0.00 0.00 0.00 58 1018.3
20260504043040 57 230 3.0 11.0 0.00 0.00 0.00 58 1018.4
20260504042528 57 205 3.0 10.0 0.00 0.00 0.00 57 1018.4
20260504042027 57 200 3.0 10.0 0.00 0.00 0.00 57 1018.5
20260504041546 57 140 3.0 10.0 0.00 0.00 0.00 57 1018.4
20260504041027 58 227 4.0 9.0 0.00 0.00 0.00 56 1018.3
20260504040527 58 153 3.0 10.0 0.00 0.00 0.00 56 1018.4
20260504035527 57 219 4.0 13.0 0.00 0.00 0.00 56 1018.5
20260504035027 57 173 5.0 13.0 0.00 0.00 0.00 56 1018.5
20260504034555 57 240 2.0 11.0 0.00 0.00 0.00 57 1018.6
20260504034027 57 225 3.0 11.0 0.00 0.00 0.00 57 1018.5
20260504033527 58 232 2.0 9.0 0.00 0.00 0.00 56 1018.5
20260504033052 58 159 3.0 9.0 0.00 0.00 0.00 56 1018.5
20260504032528 58 174 3.0 7.0 0.00 0.00 0.00 56 1018.5
20260504032029 58 215 2.0 8.0 0.00 0.00 0.00 55 1018.6
20260504031543 58 211 3.0 9.0 0.00 0.00 0.00 55 1018.7
20260504031026 58 238 3.0 9.0 0.00 0.00 0.00 55 1018.9
20260504030527 58 154 2.0 9.0 0.00 0.00 0.00 56 1018.8
20260504030047 57 132 2.0 9.0 0.00 0.00 0.00 56 1018.9
20260504025531 57 205 2.0 9.0 0.00 0.00 0.00 57 1018.8
20260504025027 57 200 3.0 8.0 0.00 0.00 0.00 57 1018.7
20260504024544 57 117 1.0 5.0 0.00 0.00 0.00 58 1018.7
20260504024027 58 238 2.0 7.0 0.00 0.00 0.00 56 1018.8
20260504023527 58 221 1.0 7.0 0.00 0.00 0.00 55 1018.7
20260504023057 58 190 2.0 7.0 0.00 0.00 0.00 56 1018.6
20260504022527 57 224 3.0 11.0 0.00 0.00 0.00 57 1018.6
20260504022027 55 140 3.0 11.0 0.00 0.00 0.00 59 1018.5
20260504021546 53 208 3.0 11.0 0.00 0.00 0.00 64 1018.5
20260504021028 51 234 2.0 6.0 0.00 0.00 0.00 67 1018.4
20260504020527 50 0 1.0 6.0 0.00 0.00 0.00 72 1018.3
20260504020052 50 0 0.0 1.0 0.00 0.00 0.00 75 1018.3
20260504015528 51 0 0.0 1.0 0.00 0.00 0.00 75 1018.3
20260504015028 51 0 0.0 1.0 0.00 0.00 0.00 74 1018.3
20260504014549 51 0 0.0 0.0 0.00 0.00 0.00 72 1018.3
20260504014027 52 0 0.0 0.0 0.00 0.00 0.00 70 1018.3
20260504013529 52 0 0.0 0.0 0.00 0.00 0.00 69 1018.2
20260504013047 53 0 0.0 0.0 0.00 0.00 0.00 68 1018.2
20260504012527 53 0 0.0 0.0 0.00 0.00 0.00 66 1018.3
20260504012027 54 0 0.0 0.0 0.00 0.00 0.00 65 1018.3
20260504011540 55 0 0.0 0.0 0.00 0.00 0.00 62 1018.3
20260504011027 56 0 0.0 1.0 0.00 0.00 0.00 61 1018.2
20260504010527 57 0 0.0 3.0 0.00 0.00 0.00 58 1018.2
20260504010047 57 0 0.0 3.0 0.00 0.00 0.00 60 1018.3
20260504005528 58 0 1.0 3.0 0.00 0.00 0.00 55 1018.2
20260504005027 58 0 0.0 2.0 0.00 0.00 0.00 52 1018.2
20260504004600 59 0 0.0 2.0 0.00 0.00 0.00 54 1018.3
20260504004027 60 0 0.0 2.0 0.00 0.00 0.00 52 1018.2
20260504003527 60 0 0.0 4.0 0.00 0.00 0.00 51 1018.2
20260504003045 60 213 1.0 4.0 0.00 0.00 0.00 50 1018.2
20260504002527 61 213 1.0 4.0 0.00 0.00 0.00 52 1018.2
20260504002027 62 250 1.0 2.0 0.00 0.00 0.00 52 1018.3
20260504001544 63 250 1.0 2.0 0.00 0.00 0.00 50 1018.3
20260504001027 63 250 1.0 3.0 0.00 0.00 0.00 46 1018.4
20260504000527 63 250 0.0 3.0 0.00 0.00 0.00 46 1018.4
20260504000044 64 0 1.0 3.0 0.00 0.00 0.00 46 1018.4
20260503235529 64 0 1.0 3.0 0.00 0.00 0.00 44 1018.4
20260503235027 65 235 1.0 5.0 0.00 0.00 0.00 44 1018.4
20260503234547 65 239 1.0 7.0 0.00 0.00 0.00 44 1018.4
20260503234029 65 240 1.0 7.0 0.00 0.00 0.00 43 1018.4
20260503233529 65 198 2.0 6.0 0.00 0.00 0.00 42 1018.4
20260503233047 65 250 2.0 7.0 0.00 0.00 0.00 42 1018.4
20260503232527 65 0 3.0 8.0 0.00 0.00 0.00 41 1018.3
20260503232027 66 208 3.0 8.0 0.00 0.00 0.00 40 1018.3
20260503231549 66 149 2.0 8.0 0.00 0.00 0.00 40 1018.4
20260503231028 67 132 2.0 8.0 0.00 0.00 0.00 38 1018.4
20260503230528 67 209 2.0 7.0 0.00 0.00 0.00 38 1018.4
20260503230044 67 213 3.0 7.0 0.00 0.00 0.00 38 1018.5
20260503225527 67 216 1.0 9.0 0.00 0.00 0.00 41 1018.6
20260503225027 67 254 3.0 9.0 0.00 0.00 0.00 38 1018.6
20260503224541 67 229 2.0 9.0 0.00 0.00 0.00 39 1018.7
20260503224027 67 205 2.0 9.0 0.00 0.00 0.00 38 1018.9
20260503223530 67 0 1.0 9.0 0.00 0.00 0.00 40 1019.0
20260503223043 67 225 4.0 10.0 0.00 0.00 0.00 38 1019.1
20260503222527 68 218 4.0 10.0 0.00 0.00 0.00 37 1019.1
20260503222026 68 217 2.0 7.0 0.00 0.00 0.00 38 1019.3
20260503221551 68 196 1.0 7.0 0.00 0.00 0.00 42 1019.3
20260503221027 68 252 2.0 7.0 0.00 0.00 0.00 39 1019.3
20260503220527 68 240 3.0 7.0 0.00 0.00 0.00 37 1019.3
20260503220047 68 0 0.0 5.0 0.00 0.00 0.00 41 1019.4
20260503215526 68 307 2.0 9.0 0.00 0.00 0.00 41 1019.3
20260503215026 68 344 2.0 9.0 0.00 0.00 0.00 42 1019.5
20260503214544 68 350 1.0 8.0 0.00 0.00 0.00 43 1019.4
20260503214027 68 281 2.0 7.0 0.00 0.00 0.00 38 1019.5
20260503213527 68 336 2.0 7.0 0.00 0.00 0.00 41 1019.6
20260503213059 68 0 1.0 8.0 0.00 0.00 0.00 40 1019.6
20260503212527 68 286 2.0 8.0 0.00 0.00 0.00 41 1019.6
20260503212026 67 273 1.0 7.0 0.00 0.00 0.00 41 1019.6
20260503211542 67 35 1.0 8.0 0.00 0.00 0.00 40 1019.7
20260503211027 67 175 3.0 8.0 0.00 0.00 0.00 38 1019.8
20260503210527 67 312 2.0 8.0 0.00 0.00 0.00 37 1019.8
20260503210055 67 0 0.0 9.0 0.00 0.00 0.00 41 1019.9
20260503205529 67 153 4.0 9.0 0.00 0.00 0.00 39 1020.1
20260503205029 67 236 2.0 6.0 0.00 0.00 0.00 39 1020.2
20260503204552 67 0 2.0 6.0 0.00 0.00 0.00 39 1020.3
20260503204026 67 331 1.0 9.0 0.00 0.00 0.00 36 1020.4
20260503203526 66 0 2.0 9.0 0.00 0.00 0.00 44 1020.6
20260503203043 66 221 3.0 9.0 0.00 0.00 0.00 37 1020.6
20260503202526 66 213 3.0 10.0 0.00 0.00 0.00 37 1020.7
20260503202029 66 318 2.0 14.0 0.00 0.00 0.00 42 1020.8
20260503201542 66 350 5.0 14.0 0.00 0.00 0.00 37 1021.0
20260503201026 66 37 2.0 13.0 0.00 0.00 0.00 39 1020.9
20260503200529 65 218 4.0 13.0 0.00 0.00 0.00 35 1021.0
20260503200044 66 209 5.0 10.0 0.00 0.00 0.00 35 1021.1
20260503195529 66 271 1.0 7.0 0.00 0.00 0.00 38 1021.2
20260503195026 66 261 2.0 10.0 0.00 0.00 0.00 43 1021.3
20260503194547 65 216 4.0 11.0 0.00 0.00 0.00 37 1021.4
20260503194029 65 0 0.0 11.0 0.00 0.00 0.00 42 1021.4
20260503193529 65 208 3.0 8.0 0.00 0.00 0.00 40 1021.6
20260503193053 65 219 2.0 10.0 0.00 0.00 0.00 38 1021.5
20260503192528 65 219 4.0 10.0 0.00 0.00 0.00 36 1021.7
20260503192029 65 206 4.0 9.0 0.00 0.00 0.00 35 1021.6
20260503191544 65 321 3.0 7.0 0.00 0.00 0.00 39 1021.6
20260503191028 65 230 1.0 12.0 0.00 0.00 0.00 44 1021.6
20260503190528 65 218 2.0 12.0 0.00 0.00 0.00 43 1021.6
20260503190043 64 306 1.0 8.0 0.00 0.00 0.00 43 1021.7
20260503185528 64 46 2.0 8.0 0.00 0.00 0.00 38 1021.8
20260503185028 64 310 2.0 8.0 0.00 0.00 0.00 46 1022.0
20260503184552 64 257 3.0 11.0 0.00 0.00 0.00 42 1022.0
20260503184027 64 285 4.0 11.0 0.00 0.00 0.00 39 1022.1
20260503183527 64 230 1.0 8.0 0.00 0.00 0.00 42 1022.1
20260503183102 64 211 2.0 8.0 0.00 0.00 0.00 42 1022.1
20260503182528 64 243 3.0 6.0 0.00 0.00 0.00 39 1022.2
20260503182030 64 243 2.0 9.0 0.00 0.00 0.00 40 1022.3
20260503181547 63 0 2.0 9.0 0.00 0.00 0.00 46 1022.4
20260503181029 63 298 3.0 7.0 0.00 0.00 0.00 42 1022.4
20260503180529 63 263 2.0 6.0 0.00 0.00 0.00 42 1022.4
20260503180047 63 0 1.0 9.0 0.00 0.00 0.00 40 1022.5
20260503175526 62 0 1.0 10.0 0.00 0.00 0.00 43 1022.6
20260503175028 62 243 4.0 10.0 0.00 0.00 0.00 41 1022.8
20260503174543 62 146 2.0 8.0 0.00 0.00 0.00 45 1022.9
20260503174026 62 159 3.0 8.0 0.00 0.00 0.00 44 1023.0
20260503173527 62 115 2.0 7.0 0.00 0.00 0.00 42 1023.1
20260503173108 62 281 2.0 7.0 0.00 0.00 0.00 45 1023.1
20260503172531 62 0 0.0 4.0 0.00 0.00 0.00 47 1023.1
20260503172028 61 355 1.0 4.0 0.00 0.00 0.00 45 1023.2
20260503171549 61 93 1.0 4.0 0.00 0.00 0.00 46 1023.3
20260503171029 60 74 1.0 6.0 0.00 0.00 0.00 44 1023.3
20260503170529 60 133 1.0 7.0 0.00 0.00 0.00 45 1023.3
20260503150529 56 312 1.0 4.0 0.00 0.00 0.00 45 1024.3
20260503131028 45 30 0.0 2.0 0.00 0.00 0.00 96 1024.1
20260503130528 44 30 0.0 2.0 0.00 0.00 0.00 96 1024.1
20260503110528 37 0 0.0 0.0 0.00 0.00 0.00 94 1023.1
20260503081547 40 0 0.0 0.0 0.00 0.00 0.00 94 1022.1
20260503081028 40 0 0.0 0.0 0.00 0.00 0.00 94 1022.2
20260503080529 40 0 0.0 0.0 0.00 0.00 0.00 94 1022.2
20260503072529 39 0 0.0 0.0 0.00 0.00 0.00 93 1022.0